Regional Weather Roundup
Issued by NWS

Home | Current Version | Previous Version | Text Only | Print | Product List | Glossary On
Versions: 1 2 3 4 5 6 7 8 9 10 11 12 13 14 15 16 17 18 19 20 21 22 23 24 25 26 27 28 29 30 31 32 33 34 35 36 37 38 39 40 41 42 43 44 45 46 47 48 49 50
700
ASUS43 KLOT 252112
RWRIL

ILLINOIS REGIONAL WEATHER ROUNDUP
NATIONAL WEATHER SERVICE CHICAGO/ROMEOVILLE IL
300 PM CST SAT FEB 25 2017

NOTE: "FAIR" INDICATES FEW OR NO CLOUDS BELOW 12,000 FEET WITH NO
SIGNIFICANT WEATHER AND/OR OBSTRUCTIONS TO VISIBILITY.

* THESE STATIONS ARE NOT UNDER NWS QUALITY CONTROL. THEY ALSO MAY NOT
  REPORT WEATHER SUCH AS PRECIPITATION OR FOG.

ILZ001-002-007-009-015-016-024-252200-
NORTHWEST ILLINOIS

CITY           SKY/WX    TMP DP  RH WIND       PRES   REMARKS
MOLINE         SUNNY     32  17  54 W18G28    30.01R WCI  20
STERLING*      PTSUNNY   32  20  61 W23G30    29.97R WCI  19
$$

ILZ003-004-008-010-011-017-018-252200-
NORTH CENTRAL ILLINOIS

CITY           SKY/WX    TMP DP  RH WIND       PRES   REMARKS
ROCKFORD       PTSUNNY   26  15  63 W21G26    29.95R WCI  12
FREEPORT*      PTSUNNY   26  15  65 W17G23    29.96R WCI  12
ROCHELLE*      CLOUDY    27  18  69 W18       29.95R WCI  14
DE KALB*       CLOUDY    26  17  66 W22G36    29.92R WCI  12
PERU*          CLOUDY    27  16  63 W21G26    29.98R WCI  13
$$

ILZ005-006-012>014-019>023-252200-
NORTHEAST ILLINOIS

CITY           SKY/WX    TMP DP  RH WIND       PRES   REMARKS
CHICAGO-OHARE  FLURRIES  26  14  60 W18       29.91R WCI  13
CHICAGO-MIDWAY FLURRIES  28  12  51 W22G32    29.92R WCI  14
AURORA         CLOUDY    28  18  66 W21G30    29.93R WCI  15
LANSING*       CLOUDY    28  19  68 W16G25    29.92R WCI  16
JOLIET*        CLOUDY    29  17  59 W13G23    29.94R WCI  19
WAUKEGAN       CLOUDY    23  13  65 NW12G21   29.89R WCI  12
DUPAGE AIRPORT CLOUDY    26  14  60 W21G28    29.91R WCI  12
KANKAKEE*      PTSUNNY   30  15  54 W18G26    29.95R WCI  18
WHEELING       CLOUDY    25  12  58 NW17G26   29.91R WCI  12
MORRIS*        CLOUDY    28  18  65 W22G29    29.94R WCI  15
ROMEOVILLE*    CLOUDY    27  20  74 W20G28    29.93R WCI  14
NORTHERLY ISL    N/A     26  15  63 W12         N/A  WCI  16
$$

LMZ740>746-252200-
SOUTHERN LAKE MICHIGAN

STATION/POSITION SKY/WX   TEMP    WIND        PRES    VSBY  WAVE
                          AIR SEA DIR/SP/G                  HT/PER
                          (F)     (DEG/KT/KT) (MB)    (MI)  (FT/S)
HARRISON CRIB              26     280/ 21/ 23   N/A
BURNHAM HARBOR             26     290/ 10/ 17   N/A
CALUMET HARBOR             27     260/ 11/ 17 1012.2R
BURNS HARBOR               27     280/ 19/ 23 1012.9R
MICHIGAN CITY              25     240/ 24/ 27   N/A
$$

ILZ025>027-034>036-040-047-049-050-058-095>099-252200-
WEST-CENTRAL ILLINOIS

CITY           SKY/WX    TMP DP  RH WIND       PRES   REMARKS
QUINCY         SUNNY     35  13  40 NW15G24   30.07S WCI  25
GALESBURG*     SUNNY     30  19  64 W17G25    30.02S WCI  18
MACOMB*        CLOUDY    32  16  51 W17G28    30.07R WCI  21
JACKSONVILLE*  MOSUNNY   34  13  42 W18G31    30.06S WCI  23
PITTSFIELD*    SUNNY     35  14  41 NW13G23   30.08S WCI  26
$$

ILZ028>032-037-038-041>044-048-051>054-059>061-252200-
CENTRAL ILLINOIS

CITY           SKY/WX    TMP DP  RH WIND       PRES   REMARKS
PONTIAC        PTSUNNY   32  18  57 W24G31    29.98R WCI  18
BLOOMINGTON    PTSUNNY   32  17  54 NW18      29.99R WCI  20
DECATUR        SUNNY     34  13  41 W22G30    30.02R WCI  22
PEORIA         MOSUNNY   31  16  54 NW12G24   30.02R WCI  22
LACON*         PTSUNNY   31  17  56 W15G22    30.00R WCI  20
LINCOLN*       SUNNY     33  16  49 W9G24     30.03R WCI  25
SPRINGFIELD    MOSUNNY   37  16  42 W23       30.05R WCI  26
TAYLORVILLE    MOSUNNY   34  14  43 W14G24    30.05R WCI  24
$$

ILZ033-039-045-046-055>057-062-063-252200-
EAST-CENTRAL ILLINOIS

CITY           SKY/WX    TMP DP  RH WIND       PRES   REMARKS
CHAMPAIGN      MOSUNNY   35  14  42 W25G31    29.99R WCI  23
RANTOUL*       PTSUNNY   33  19  55 W21G28    29.98R WCI  22
MATTOON        MOSUNNY   36  15  42 W26G32    30.01R WCI  24
PARIS*         PTSUNNY   35  17  48 W20G31    30.01R WCI  24
$$

ILZ079-100>102-252200-
SOUTHWEST ILLINOIS

CITY           SKY/WX    TMP DP  RH WIND       PRES   REMARKS
ALTON          MOSUNNY   37  14  38 W16       30.08S WCI  28
BELLEVILLE     SUNNY     41  12  31 NW15G22   30.07R
CAHOKIA*       SUNNY     41  11  29 NW15G26   30.09R
SPARTA*        SUNNY     40  14  35 NW14G20   30.09R
$$

ILZ064>066-069>071-074>076-080>082-084>086-088>090-092>094-252200-
SOUTH-CENTRAL ILLINOIS

CITY           SKY/WX    TMP DP  RH WIND       PRES   REMARKS
CARBONDALE     SUNNY     40  14  34 NW9G20    30.09R
CAIRO*         SUNNY     43  18  37 W12G18    30.10R
EFFINGHAM*     MOSUNNY  N/A N/A N/A W14G23    30.06R
MARION         SUNNY     45  16  31 NW17      30.08S
MT. VERNON     MOSUNNY   39  15  37 VRB7G17   30.07S WCI  34
CENTRALIA*     MOSUNNY   39  19  44 W15G24    30.06S WCI  31
SALEM*         MOSUNNY   39  16  39 W14G26    30.06S WCI  31
METROPOLIS*    SUNNY     44  18  35 W8        30.09R
$$

ILZ067-068-072-073-078-083-087-091-252200-
SOUTHEAST ILLINOIS

CITY           SKY/WX    TMP DP  RH WIND       PRES   REMARKS
LAWRENCEVILLE  MOSUNNY   37  16  42 W22       30.05R WCI  26
FLORA*         MOSUNNY   39  19  44 W16G25    30.06R WCI  30
FAIRFIELD*     MOSUNNY   38  17  42 W6        30.06R WCI  34
HARRISBURG*    SUNNY     40  19  41 NW15G21   30.08S
ROBINSON*      MOSUNNY   33  18  52 W17       30.05R WCI  23
CARMI*         MOSUNNY   39  19  44 W15G23    30.07R WCI  31
$$

ABBREVIATIONS USED IN REMARKS
   TC - TEMPERATURE IN CELSIUS
  WCI - WIND CHILL INDEX
   HX - HEAT INDEX
  VSB - VISIBILITY
$$





USA.gov is the U.S. government's official web portal to all federal, state and local government web resources and services.